Location: *
(55.6049°S, 142.1985°W)
Time: 04:22:19
(UTC+00:00)

GEOS 3 Rocket - Pass Details

Date: 12 May 2021
Orbit: 777 x 842 km, 115.0° (Epoch: 23 June)

Event Time Altitude Azimuth Distance (km) Brightness Sun altitude
Rises 14:19:47 0° 65° (ENE) 3,275 7.8 -24.2°
Reaches altitude 10° 14:22:04 10° 68° (ENE) 2,352 6.9 -23.9°
Maximum altitude 14:27:05 62° 147° (SSE) 891 3.9 -23.2°
Enters shadow 14:29:07 36° 213° (SSW) 1,259 4.3 -22.9°
